Mason, MI

1:49 AM EDT on June 22, 2018 (GMT -0400)
Mason Jewett

Weather History for KTEW - December, 2017

Change the Weather History Date:

Thursday, December 7, 2017

  Actual Average (KLAN) Record (KLAN)
Temperature  
Mean Temperature 27 °F -  
Max Temperature 32 °F 35 °F 63 °F (1951)
Min Temperature 22 °F 24 °F -5 °F (1885)
Degree Days  
Heating Degree Days 38    
Moisture  
Dew Point 17 °F    
Average Humidity 69    
Maximum Humidity 81    
Minimum Humidity 54    
Precipitation  
Precipitation 0.00 in - - ()
Sea Level Pressure  
Sea Level Pressure 30.00 in    
Wind  
Wind Speed 10 mph (West)    
Max Wind Speed 16 mph    
Max Gust Speed 23 mph    
Visibility 9 miles    
Events Snow    
Averages and records for this station are not official NWS values.
T = Trace of Precipitation, MM = Missing Value Source: NWS Daily Summary

Daily Weather History Graph

Daily Weather History Graph

Search for Another Location

Airport or City:

Astronomy

Dec. 07, 2017 Rise Set
Actual Time 7:54 AM EST 5:04 PM EST
Civil Twilight 7:22 AM EST 5:36 PM EST
Nautical Twilight 6:47 AM EST 6:11 PM EST
Astronomical Twilight 6:12 AM EST 6:45 PM EST
Moon 9:52 PM EST (12/7) 11:30 AM EST (12/7)
Length of Visible Light 10h 13m
Length of Day
9h 10m
Waning Gibbous, 78% of the Moon is Illuminated
Dec 7
Waning Gibbous
Dec 10
Last Quarter
Dec 18
New
Dec 26
First Quarter
Jan 1
Full

Hourly Weather History & Observations

Time (EST) Temp. Windchill Dew Point Humidity Pressure Visibility Wind Dir Wind Speed Gust Speed Precip Events Conditions
12:13 AM 32.9 °F 24.1 °F 18.0 °F 54% 29.94 in 10.0 mi NW 11.5 mph 16.1 mph N/A   Overcast
12:23 AM 30.7 °F 20.9 °F 20.1 °F 65% 29.94 in 10.0 mi NNW 12.7 mph - N/A   Overcast
12:53 AM 29.7 °F 22.8 °F 20.3 °F 68% 29.94 in 10.0 mi NNW 6.9 mph - N/A   Overcast
1:13 AM 29.1 °F 20.6 °F 20.1 °F 69% 29.94 in 10.0 mi NW 9.2 mph - N/A Snow Light Snow
1:23 AM 28.9 °F 21.9 °F 20.1 °F 70% 29.95 in 10.0 mi NNW 6.9 mph - N/A   Overcast
1:53 AM 28.4 °F 21.2 °F 19.9 °F 71% 29.95 in 10.0 mi NNW 6.9 mph - N/A   Overcast
2:13 AM 28.4 °F 20.4 °F 19.4 °F 69% 29.96 in 10.0 mi WNW 8.1 mph - N/A   Overcast
2:23 AM 28.4 °F 19.7 °F 19.2 °F 69% 29.96 in 10.0 mi WNW 9.2 mph - N/A Snow Light Snow
2:53 AM 27.9 °F 17.8 °F 18.5 °F 68% 29.97 in 10.0 mi NW 11.5 mph - N/A   Overcast
3:13 AM 27.5 °F 18.6 °F 18.3 °F 68% 29.97 in 10.0 mi WNW 9.2 mph - N/A   Overcast
3:23 AM 27.5 °F 19.3 °F 18.1 °F 68% 29.97 in 10.0 mi NW 8.1 mph - N/A   Overcast
3:53 AM 27.5 °F 20.2 °F 18.5 °F 69% 29.96 in 10.0 mi WNW 6.9 mph - N/A   Overcast
4:23 AM 27.1 °F 18.9 °F 18.3 °F 69% 29.96 in 10.0 mi WNW 8.1 mph - N/A Snow Light Snow
4:53 AM 26.6 °F 19.1 °F 18.5 °F 71% 29.96 in 10.0 mi WNW 6.9 mph - N/A Snow Light Snow
5:13 AM 26.2 °F 18.6 °F 19.0 °F 74% 29.96 in 10.0 mi WNW 6.9 mph - N/A Snow Light Snow
5:23 AM 26.2 °F 18.6 °F 18.9 °F 74% 29.96 in 10.0 mi WNW 6.9 mph - N/A Snow Light Snow
5:53 AM 25.3 °F 16.0 °F 18.0 °F 74% 29.97 in 5.0 mi NW 9.2 mph - N/A Snow Light Snow
6:13 AM 25.0 °F 18.1 °F 18.5 °F 76% 29.97 in 3.0 mi NW 5.8 mph - N/A Snow Light Snow
6:23 AM 24.8 °F 15.3 °F 19.0 °F 79% 29.98 in 3.0 mi WNW 9.2 mph - N/A Snow Light Snow
6:53 AM 24.8 °F 16.9 °F 19.8 °F 81% 29.99 in 3.0 mi WNW 6.9 mph - N/A Snow Light Snow
7:13 AM 24.4 °F 14.9 °F 18.0 °F 76% 29.99 in 5.0 mi WNW 9.2 mph - N/A Snow Light Snow
7:23 AM 24.4 °F 17.5 °F 18.3 °F 78% 29.99 in 7.0 mi WNW 5.8 mph - N/A Snow Light Snow
7:53 AM 23.9 °F 12.9 °F 16.5 °F 73% 30.00 in 10.0 mi WNW 11.5 mph - N/A   Overcast
8:13 AM 23.9 °F 15.8 °F 16.7 °F 74% 30.01 in 10.0 mi WNW 6.9 mph - N/A   Overcast
8:23 AM 23.9 °F 14.2 °F 16.7 °F 74% 30.01 in 10.0 mi WNW 9.2 mph - N/A   Overcast
8:53 AM 24.3 °F 16.3 °F 17.1 °F 74% 30.01 in 10.0 mi West 6.9 mph - N/A   Overcast
9:13 AM 24.6 °F 15.8 °F 17.8 °F 75% 30.01 in 2.5 mi West 8.1 mph - N/A Snow Light Snow
9:23 AM 24.4 °F 15.6 °F 18.0 °F 76% 30.01 in 2.5 mi West 8.1 mph - N/A Snow Light Snow
9:53 AM 25.3 °F 15.3 °F 17.8 °F 73% 30.02 in 5.0 mi West 10.4 mph - N/A Snow Light Snow
10:13 AM 26.2 °F 16.4 °F 17.6 °F 70% 30.02 in 7.0 mi West 10.4 mph 17.3 mph N/A   Overcast
10:23 AM 26.6 °F 16.8 °F 17.8 °F 69% 30.02 in 10.0 mi West 10.4 mph 16.1 mph N/A   Overcast
10:53 AM 27.9 °F 17.3 °F 16.7 °F 63% 30.03 in 10.0 mi West 12.7 mph - N/A   Mostly Cloudy
11:14 AM 28.0 °F 18.1 °F 16.9 °F 63% 30.02 in 10.0 mi West 11.5 mph - N/A   Mostly Cloudy
11:24 AM 28.0 °F 18.1 °F 16.9 °F 63% 30.02 in 10.0 mi West 11.5 mph - N/A   Overcast
11:53 AM 28.0 °F 17.5 °F 16.9 °F 63% 30.01 in 10.0 mi West 12.7 mph 17.3 mph N/A   Overcast
12:14 PM 28.6 °F 18.2 °F 16.5 °F 61% 30.01 in 10.0 mi West 12.7 mph - N/A   Overcast
12:24 PM 29.5 °F 19.3 °F 16.7 °F 59% 30.00 in 10.0 mi West 12.7 mph 20.7 mph N/A   Overcast
12:53 PM 28.4 °F 18.0 °F 15.6 °F 59% 30.00 in 10.0 mi West 12.7 mph 18.4 mph N/A   Overcast
1:14 PM 29.3 °F 18.2 °F 15.1 °F 55% 30.00 in 10.0 mi West 15.0 mph 21.9 mph N/A   Overcast
1:24 PM 29.3 °F 18.6 °F 15.8 °F 57% 29.99 in 10.0 mi West 13.8 mph 18.4 mph N/A   Overcast
1:53 PM 29.1 °F 18.9 °F 15.3 °F 56% 29.99 in 10.0 mi West 12.7 mph 23.0 mph N/A   Overcast
2:14 PM 29.3 °F 17.7 °F 16.2 °F 58% 29.99 in 10.0 mi WNW 16.1 mph 19.6 mph N/A   Overcast
2:24 PM 28.6 °F 17.7 °F 15.8 °F 59% 29.99 in 10.0 mi WNW 13.8 mph 19.6 mph N/A Snow Light Snow
2:53 PM 28.4 °F 17.0 °F 17.4 °F 63% 29.99 in 10.0 mi West 15.0 mph - N/A   Overcast
3:14 PM 27.9 °F 17.8 °F 19.4 °F 71% 30.00 in 1.8 mi WNW 11.5 mph 21.9 mph N/A Snow Light Snow
3:24 PM 27.5 °F 18.0 °F 19.6 °F 72% 30.00 in 7.0 mi West 10.4 mph - N/A Snow Light Snow
3:53 PM 28.0 °F 16.5 °F 17.6 °F 65% 30.01 in 10.0 mi West 15.0 mph 21.9 mph N/A   Overcast
4:14 PM 27.7 °F 16.6 °F 16.0 °F 62% 30.01 in 10.0 mi West 13.8 mph 21.9 mph N/A   Overcast
4:24 PM 27.5 °F 16.8 °F 16.5 °F 63% 30.01 in 10.0 mi West 12.7 mph - N/A Snow Light Snow
4:53 PM 26.6 °F 15.7 °F 17.6 °F 69% 30.01 in 10.0 mi West 12.7 mph 19.6 mph N/A Snow Light Snow
5:14 PM 26.1 °F 16.8 °F 19.4 °F 76% 30.02 in 2.5 mi West 9.2 mph - N/A Snow Light Snow
5:23 PM 25.5 °F 14.9 °F 19.9 °F 79% 30.02 in 2.0 mi West 11.5 mph - N/A Snow Light Snow
5:53 PM 25.5 °F 17.8 °F 19.2 °F 77% 30.03 in 4.0 mi West 6.9 mph - N/A Snow Light Snow
6:14 PM 25.5 °F 15.5 °F 18.0 °F 73% 30.04 in 10.0 mi West 10.4 mph 16.1 mph N/A Snow Light Snow
6:23 PM 25.3 °F 16.0 °F 18.1 °F 74% 30.04 in 3.0 mi West 9.2 mph - N/A Snow Light Snow
6:54 PM 25.2 °F 14.4 °F 16.5 °F 70% 30.04 in 10.0 mi West 11.5 mph - N/A Snow Light Snow
7:14 PM 25.3 °F 14.7 °F 14.4 °F 63% 30.05 in 10.0 mi West 11.5 mph 16.1 mph N/A   Overcast
7:23 PM 25.3 °F 17.6 °F 13.6 °F 61% 30.05 in 10.0 mi West 6.9 mph - N/A   Overcast
7:54 PM 24.8 °F 16.1 °F 16.3 °F 70% 30.05 in 10.0 mi WSW 8.1 mph - N/A Snow Light Snow
8:14 PM 24.6 °F 16.7 °F 17.6 °F 75% 30.05 in 10.0 mi SW 6.9 mph - N/A Snow Light Snow
8:23 PM 24.6 °F 17.7 °F 17.6 °F 75% 30.04 in 10.0 mi SW 5.8 mph - N/A Snow Light Snow
8:54 PM 24.3 °F 15.4 °F 17.4 °F 75% 30.04 in 10.0 mi SW 8.1 mph - N/A Snow Light Snow
9:14 PM 23.9 °F 16.8 °F 17.6 °F 77% 30.04 in 10.0 mi SSW 5.8 mph - N/A Snow Light Snow
9:23 PM 23.9 °F 15.8 °F 18.0 °F 78% 30.04 in 10.0 mi SW 6.9 mph - N/A   Overcast
9:54 PM 23.0 °F 13.1 °F 16.5 °F 76% 30.03 in 10.0 mi SW 9.2 mph - N/A   Overcast
10:14 PM 22.8 °F 18.2 °F 15.6 °F 74% 30.03 in 10.0 mi SW 3.5 mph - N/A   Overcast
10:23 PM 22.8 °F 14.5 °F 15.6 °F 74% 30.03 in 10.0 mi SW 6.9 mph - N/A   Overcast
10:54 PM 23.0 °F 13.9 °F 14.9 °F 71% 30.02 in 10.0 mi SW 8.1 mph - N/A   Overcast
11:13 PM 23.0 °F 14.7 °F 14.7 °F 71% 30.02 in 10.0 mi SSW 6.9 mph - N/A   Overcast
11:23 PM 23.0 °F 15.8 °F 14.7 °F 71% 30.02 in 10.0 mi SSW 5.8 mph - N/A   Overcast
11:53 PM 23.7 °F 16.6 °F 14.9 °F 69% 30.01 in 10.0 mi SSW 5.8 mph - N/A   Overcast